FENGYUN 1C DEB, 32133

Orbit data source: Space-Track

FENGYUN 1C DEB, 32133 is space debris in SSO originally from a launch on Mon, 10 May 1999 UTC launched from the Taiyaun Space Center, China (TSC). Fengyun 1C debris stems from the Chinese weather satellite Fengyun-1C, which was intentionally destroyed by a Chinese anti-satellite missile in 2007. This event dramatically increased the amount of space debris, with thousands of trackable fragments posing hazards to satellites and human spaceflight. The Fengyun 1C debris cloud has become a focal point in discussions about space sustainability and the need for international regulations to prevent the creation of new debris.

Loading next visibility...
Identifier
32133, 1999-025CSB
Orbit
SSO
Country
Flag of CNCN / PRC
Related business
Manufacturer
Unknown
Mission
Spacecraft
Bus & Motor
Unknown
Mass
Unknown
Launch date (UTC)
1999-05-10 (27 years ago)
Launch vehicle
Unknown
Launch site
Taiyaun Space Center, China (TSC)
Object type
Payload
Rocket body
Debris
Shape & HBR
Unknown shape, 0.1 m
Radar Cross Section
Small (<0.1 m²)

Expand to show TLE details & history
Last TLE update: 2 days ago

TLE from 2 days ago
0 FENGYUN 1C DEB
1 32133U 99025CSB 26035.74606847  .00000471  00000-0  24807-3 0  9991
2 32133  98.4342  39.2554 0034405 305.9637  53.8350 14.18128997957400
Epoch: 2026-02-04T17:54Z
TLE epoch observation values (Epoch: 2026-02-04T17:54:20.315Z)
Latitude
-0.00002°
Longitude
-4.23747°
Altitude
820.023 km
Speed
7.451 km/s
True Right ascension
02h 37m 01s
True Declination
0° 00' 00"
Sunlit
Object was in daylight at epoch
Visualization orbit readout
Latitude
Unknown
Longitude
Unknown
Altitude
Unknown
Speed
Unknown
Apparent Right ascension
Unknown
Apparent Declination
Unknown
Sunlit
N/A
Visualization observer readout
Local Sidereal Time
08:51:42
Azimuth
Unknown
Elevation
Unknown
Doppler factor
Unknown
Orbital elements
Apogee altitude
853.631 km
Perigee altitude
804.04 km
Semi-major axis
7,206.972 km
Eccentricity
0.00344
Inclination
98.4342°
RAAN
39.2554°
Arg. of periapsis
305.9637°
True anomaly
54.1541°
Mean anomaly
53.835°
Eccentric anomaly
53.99447°
Mean motion
3.54743 °/min
Orbital period
101.48 mins
BSTAR
0.00024807
Loading maneuver chart data...
Computing Atmospheric mass density...

Documentation

Showing up to 5 results
|